Location: ??
(35.5653°N, 139.6194°E)
Time: 04:43:08
(UTC+00:00)

Cosmos 1328 Rocket - Pass Details

Date: 20 November 2019
Orbit: 600 x 628 km, 82.5° (Epoch: 09 December)

Event Time Altitude Azimuth Distance (km) Brightness Sun altitude
Exits shadow 19:49:44 - 350° (N) 2,006 6.0 -18.7°
Reaches altitude 10° 19:49:52 10° 350° (N) 1,952 5.9 -18.7°
Maximum altitude 19:54:10 77° 265° (W) 621 3.3 -17.8°
Drops below altitude 10° 19:58:26 10° 179° (S) 1,934 6.3 -17.0°
Sets 20:00:38 0° 178° (S) 2,832 7.1 -16.6°
